Dewpoint
3 4 4 4 2 1 1 1 2 -2 1 -1 -2 -3 -4 -4 -6 -6 -9 -10 -9 -9 -10 -14 -16 -16 -19 -19 -17 -12 -10 -9 -7 -6 -9 -10 -10 -11 -8 -7 -5 -5 -4 -2
4 3 2 2 0 1 1 2 3 0 -0 -2 -3 -4 -4 -4 -6 -7 -7 -11 -9 -10 -10 -13 -14 -16 -16 -19 -21 -20 -17 -18 -14 -16 -17 -19 -22 -21 -21 -20 -17 -14 -12 -11
3 2 2 4 -0 -0 0 1 1 2 -1 -3 -3 -4 -4 -6 -7 -7 -8 -11 -11 -10 -10 -12 -13 -13 -16 -15 -17 -22 -25 -23 -22 -25 -23 -22 -25 -28 -29 -28 -27 -28 -30 -30
4 4 5 -1 -0 -1 -0 -1 -2 -2 -3 -3 -3 -4 -5 -6 -7 -8 -10 -11 -12 -12 -12 -12 -13 -14 -14 -16 -14 -17 -21 -26 -29 -29 -29 -30 -30 -30 -30 -31 -33 -33 -33 -34
4 5 2 1 -0 -0 -0 -0 -2 -2 -3 -4 -5 -6 -5 -6 -7 -9 -11 -12 -13 -12 -13 -13 -13 -14 -15 -16 -15 -16 -17 -19 -21 -26 -31 -32 -33 -33 -33 -33 -33 -33 -33 -34
4 5 4 1 -2 -3 -3 1 -3 -3 -4 -5 -5 -4 -4 -7 -9 -10 -11 -12 -14 -13 -14 -14 -14 -15 -16 -16 -16 -16 -15 -16 -18 -20 -23 -25 -25 -27 -29 -31 -33 -35 -35 -35
3 4 3 -1 -3 -3 1 -0 -3 -4 -4 -5 -4 -3 -5 -9 -10 -10 -12 -13 -14 -16 -16 -15 -14 -15 -15 -15 -14 -15 -16 -16 -19 -19 -21 -22 -25 -26 -26 -28 -31 -33 -34 -35
2 3 3 -2 -3 -0 -2 -2 -3 -4 -4 -5 -5 -4 -8 -10 -11 -12 -13 -13 -15 -20 -19 -17 -15 -16 -17 -14 -14 -15 -17 -17 -17 -18 -19 -23 -25 -26 -27 -29 -31 -31 -32 -31
1 1 -1 -0 -1 -2 -3 -2 -3 -4 -4 -5 -4 -7 -11 -12 -12 -13 -14 -15 -16 -20 -22 -22 -21 -16 -18 -18 -17 -18 -19 -19 -20 -21 -22 -24 -26 -27 -28 -28 -29 -28 -27 -27
-1 -2 -1 -2 -2 -3 -3 -3 -2 -3 -3 -4 -4 -9 -12 -14 -14 -16 -16 -16 -17 -19 -23 -25 -25 -24 -19 -20 -25 -24 -26 -25 -25 -25 -23 -24 -24 -23 -24 -25 -23 -20 -18 -19
-1 -2 -2 -2 -3 -4 -4 -4 -3 -3 -3 -4 -3 -10 -13 -13 -16 -17 -17 -17 -18 -21 -24 -28 -29 -30 -29 -26 -30 -29 -27 -25 -24 -24 -21 -19 -17 -15 -15 -13 -14 -13 -15 -17
-2 -3 -3 -3 -4 -4 -4 -5 -5 -5 -5 -4 -5 -11 -13 -16 -17 -18 -19 -19 -20 -22 -24 -30 -33 -32 -31 -28 -27 -29 -28 -27 -25 -22 -19 -18 -19 -19 -17 -16 -15 -14 -15 -16
-1 -3 -3 -2 -4 -5 -5 -5 -6 -7 -7 -9 -11 -13 -14 -16 -17 -18 -20 -22 -24 -24 -26 -31 -34 -33 -31 -26 -26 -28 -28 -27 -25 -23 -23 -24 -26 -28 -30 -22 -21 -19 -19 -18
-2 -3 -2 -3 -5 -5 -5 -6 -6 -7 -8 -10 -11 -13 -14 -16 -17 -18 -20 -23 -26 -27 -28 -31 -34 -34 -33 -28 -27 -28 -30 -30 -30 -27 -26 -23 -22 -22 -21 -19 -20 -22 -20 -20
-3 -3 -3 -2 -3 -4 -4 -5 -6 -7 -7 -7 -7 -11 -15 -16 -17 -19 -21 -24 -26 -29 -31 -33 -33 -34 -34 -32 -28 -29 -30 -30 -25 -22 -20 -18 -19 -20 -19 -18 -18 -18 -18 -20
-2 -3 -3 -3 -3 -4 -4 -6 -6 -8 -9 -11 -13 -15 -15 -16 -18 -20 -21 -25 -28 -29 -32 -33 -34 -34 -34 -34 -32 -32 -29 -27 -21 -19 -18 -17 -18 -20 -20 -19 -18 -18 -18 -18
-3 -3 -3 -3 -4 -5 -6 -7 -8 -9 -10 -11 -12 -14 -15 -17 -20 -20 -22 -26 -26 -26 -32 -33 -33 -33 -34 -33 -33 -33 -30 -24 -20 -19 -19 -18 -19 -20 -19 -18 -19 -18 -19 -19
-4 -4 -4 -4 -5 -6 -7 -7 -8 -9 -10 -11 -12 -13 -16 -19 -19 -20 -23 -27 -31 -31 -32 -32 -29 -30 -30 -30 -30 -30 -28 -23 -19 -19 -18 -18 -19 -19 -18 -18 -19 -19 -19 -19
-4 -4 -4 -4 -5 -5 -7 -7 -8 -9 -10 -11 -12 -14 -15 -16 -17 -20 -23 -27 -30 -31 -30 -22 -26 -26 -27 -26 -27 -27 -26 -24 -21 -19 -18 -18 -18 -18 -18 -18 -18 -18 -18 -18
-4 -4 -4 -4 -5 -6 -7 -7 -8 -9 -10 -11 -12 -13 -14 -14 -17 -21 -22 -23 -28 -30 -26 -22 -20 -23 -25 -22 -22 -20 -19 -23 -23 -19 -17 -17 -18 -18 -19 -19 -19 -19 -19 -19
-4 -4 -4 -5 -5 -6 -6 -7 -7 -8 -9 -10 -11 -12 -14 -15 -17 -19 -22 -25 -28 -27 -17 -18 -17 -20 -21 -19 -18 -16 -17 -21 -22 -19 -18 -18 -18 -18 -18 -18 -18 -20 -20 -19
-4 -5 -5 -5 -5 -6 -6 -7 -7 -7 -8 -9 -10 -11 -12 -14 -18 -21 -23 -26 -27 -19 -18 -14 -16 -17 -17 -16 -15 -16 -18 -19 -20 -18 -17 -17 -16 -16 -17 -17 -18 -18 -19 -19
-4 -5 -5 -5 -5 -6 -6 -7 -7 -7 -7 -8 -9 -10 -12 -15 -19 -22 -25 -27 -22 -14 -13 -15 -15 -15 -16 -16 -16 -16 -17 -17 -16 -16 -16 -16 -17 -17 -17 -18 -18 -19 -19 -19
-4 -5 -5 -6 -6 -6 -6 -7 -7 -7 -7 -8 -9 -11 -13 -17 -21 -22 -19 -15 -15 -14 -13 -14 -16 -16 -16 -16 -16 -16 -15 -16 -16 -16 -17 -17 -17 -18 -18 -19 -19 -20 -21 -21
-5 -5 -5 -5 -6 -6 -6 -7 -7 -7 -7 -7 -10 -14 -17 -19 -20 -18 -15 -12 -12 -13 -15 -15 -15 -15 -15 -15 -16 -16 -16 -16 -17 -17 -17 -18 -18 -19 -20 -21 -21 -22 -23 -23
-4 -5 -5 -5 -6 -5 -6 -6 -6 -7 -7 -8 -12 -16 -18 -19 -18 -13 -11 -12 -14 -15 -14 -14 -15 -14 -15 -15 -15 -16 -16 -17 -17 -18 -20 -22 -23 -24 -24 -25 -26 -27 -27 -26
-5 -4 -5 -5 -5 -6 -7 -8 -8 -9 -10 -13 -16 -18 -18 -19 -16 -14 -13 -13 -14 -14 -14 -14 -14 -15 -15 -16 -17 -18 -20 -22 -24 -26 -27 -27 -28 -28 -28 -28 -28 -28 -28 -28
Wind_Speed
6 5 3 2 2 1 4 3 4 4 6 12 12 10 11 8 6 3 6 9 9 14 18 22 23 24 27 29 30 28 30 32 34 33 37 42 46 48 48 49 47 44 42 41
5 6 6 4 5 7 3 3 2 4 4 6 16 16 12 10 7 6 4 7 7 11 15 21 21 23 26 28 32 31 33 34 34 37 39 40 42 44 44 45 43 40 41 41
3 5 3 4 10 8 5 5 6 7 5 14 10 14 16 14 9 7 5 6 9 11 13 16 20 19 24 26 29 33 34 34 35 36 38 39 39 40 42 41 41 42 42 39
1 3 5 4 2 6 7 4 4 4 9 15 16 17 16 14 13 9 7 6 9 12 12 12 17 19 20 22 26 30 33 34 35 34 35 36 37 38 38 38 40 39 38 36
4 5 3 2 4 5 6 7 7 9 10 17 21 15 8 14 15 12 9 6 7 8 11 10 12 16 18 21 23 26 30 31 32 33 32 33 35 35 35 35 36 38 36 34
1 3 4 2 3 10 5 4 14 17 18 22 20 5 4 20 21 15 11 6 6 6 7 9 10 12 18 19 21 23 24 27 28 30 31 32 32 33 33 34 35 34 34 36
3 2 3 1 8 13 3 5 19 26 27 26 7 2 15 24 22 17 15 8 5 5 6 8 7 8 15 16 18 16 18 21 25 26 29 29 30 30 31 32 33 33 33 32
3 2 6 7 5 6 3 7 23 23 29 26 11 12 23 25 24 20 18 11 4 5 7 7 7 6 12 15 12 13 14 18 20 23 24 26 27 28 29 30 31 33 32 32
4 3 1 1 2 7 7 18 21 23 24 25 20 22 26 25 20 20 17 10 5 5 7 8 8 6 9 12 10 12 15 17 18 19 21 23 24 25 26 27 29 31 32 33
2 2 2 3 6 10 10 12 15 23 24 25 24 23 27 25 20 21 15 10 7 5 6 7 8 7 9 9 10 11 13 14 15 16 18 19 21 23 25 27 30 31 32 32
2 1 3 5 8 16 15 14 14 16 23 24 23 26 26 24 25 19 14 11 7 6 6 6 7 8 7 8 8 10 11 13 15 16 17 18 19 20 22 24 26 25 27 29
4 14 6 11 17 19 18 16 13 18 19 19 22 27 26 25 22 17 14 11 9 7 6 5 5 6 6 6 6 7 8 10 12 14 15 16 16 17 16 15 13 15 17 22
4 16 6 20 22 18 17 16 14 16 17 23 24 25 24 24 19 16 13 11 9 8 7 5 4 3 3 4 5 6 9 10 10 11 13 15 15 16 16 14 14 15 19 21
9 21 17 23 23 18 17 18 17 16 18 21 23 23 21 20 17 14 12 10 9 7 6 4 3 2 1 2 4 5 6 7 7 9 11 12 13 14 13 14 18 19 19 21
20 3 9 20 20 16 17 18 19 19 20 19 19 21 21 18 17 14 12 10 8 7 5 4 3 1 1 2 5 7 7 7 7 8 10 11 13 12 11 13 16 16 18 19
10 4 14 19 19 18 19 19 19 20 20 21 22 19 17 15 15 14 12 10 9 7 5 4 3 2 3 3 5 7 7 7 6 8 10 12 15 15 15 16 18 16 18 20
18 18 19 20 21 22 23 19 18 20 20 19 18 18 17 17 16 14 13 11 10 8 6 5 4 4 4 5 7 8 8 7 6 9 11 13 14 17 16 17 16 17 19 20
9 7 11 17 23 22 20 17 17 17 18 17 17 18 17 17 15 13 12 11 10 8 7 7 5 4 5 6 7 7 8 9 8 10 11 13 15 16 15 16 17 19 20 21
10 10 15 18 16 16 17 15 16 14 14 16 18 18 15 13 13 12 11 9 8 8 8 6 6 5 6 5 5 5 8 10 11 11 12 13 14 14 15 16 18 19 20 21
12 8 11 15 15 15 15 13 11 13 13 14 15 17 17 17 14 12 10 9 9 8 7 7 6 7 7 5 5 7 10 13 13 12 12 13 14 16 17 18 20 23 24 23
12 12 12 12 14 14 12 10 10 13 13 14 15 16 16 15 15 13 11 10 9 9 8 5 6 7 7 7 7 11 14 13 12 13 12 12 15 18 19 20 23 24 24 25
12 12 12 14 13 12 12 10 9 9 11 13 14 15 16 16 15 13 13 11 10 8 7 6 7 7 8 8 9 11 11 13 11 11 12 14 18 22 20 23 24 24 27 27
9 7 9 10 10 10 12 13 12 10 10 13 15 16 15 13 12 13 12 11 9 7 6 6 8 8 8 9 8 8 10 11 11 13 15 18 18 17 22 27 28 28 27 28
10 9 9 10 10 11 12 13 13 12 12 12 12 12 14 15 13 12 11 8 6 5 5 8 8 7 6 5 6 8 10 14 17 19 17 17 23 26 26 27 29 29 29 27
11 10 10 9 10 10 11 12 13 13 13 13 13 14 14 14 12 9 9 5 4 5 6 5 4 6 7 9 12 15 16 16 15 18 25 28 28 27 28 28 29 29 29 28
11 11 9 8 9 10 11 11 11 11 11 11 12 13 13 12 9 5 3 5 5 4 5 7 8 9 11 14 17 17 18 23 24 25 26 27 27 28 28 28 29 28 28 29
7 8 8 8 10 9 7 5 6 7 8 9 8 10 12 12 8 5 4 5 5 6 7 10 12 14 16 18 20 21 22 24 25 25 25 26 26 27 26 27 27 28 28 28
Wind_Direction
278 236 142 87 320 222 180 198 169 264 214 201 179 159 150 160 168 139 48 52 48 52 48 44 43 48 51 52 52 54 57 59 62 65 66 65 63 63 65 70 75 75 77 77
190 276 184 184 217 205 217 216 211 183 237 122 125 133 144 162 167 141 88 54 68 66 58 50 47 47 55 53 54 54 56 57 60 63 61 63 63 63 63 65 67 70 73 73
246 206 142 276 226 190 188 199 157 202 197 152 151 156 165 166 162 149 132 76 74 74 66 58 53 52 55 58 58 57 57 56 57 58 60 61 62 62 62 60 61 62 62 63
168 120 217 245 234 214 188 172 162 95 155 164 153 159 167 173 163 159 150 115 77 74 79 67 63 58 59 60 59 59 58 56 55 56 57 58 59 58 60 58 56 56 56 55
179 206 293 184 211 163 172 237 188 144 140 131 140 143 160 180 172 155 145 131 103 83 76 76 69 64 61 58 60 58 58 56 55 56 57 58 58 57 58 57 57 56 56 53
133 226 231 245 182 160 71 284 165 147 152 149 149 170 180 178 165 159 155 155 135 129 101 99 76 72 65 61 56 56 54 56 55 55 56 58 59 59 58 57 56 52 49 47
160 257 286 299 150 126 107 246 163 162 161 161 177 182 161 160 158 159 159 168 157 155 122 111 106 82 77 66 61 57 59 55 55 53 53 53 56 57 57 56 54 51 47 45
131 161 267 150 121 166 194 149 162 169 173 169 172 144 152 156 154 156 163 166 165 144 131 127 135 103 89 80 69 68 64 60 54 51 49 47 48 48 47 45 44 44 43 42
191 216 177 38 169 144 165 152 173 180 178 183 169 158 155 154 154 161 165 168 169 153 128 120 120 124 92 87 85 77 69 62 53 47 43 40 39 39 39 38 36 36 34 32
106 272 168 103 148 165 170 177 177 188 183 184 172 163 157 155 156 161 170 176 175 161 138 118 107 102 95 80 76 70 62 59 54 48 43 40 35 34 33 31 27 26 25 25
24 284 159 219 185 166 154 154 148 164 181 177 170 164 162 163 165 169 173 180 193 180 147 123 110 102 93 88 70 59 54 48 46 44 40 38 36 37 35 31 24 20 14 12
217 194 170 186 169 167 161 158 162 161 161 171 171 165 168 172 177 182 185 190 193 175 157 131 109 100 91 83 71 57 53 44 36 37 36 34 32 33 37 35 29 10 10 10
168 178 178 161 164 170 164 161 163 160 159 160 165 172 180 179 186 187 187 193 200 186 168 148 131 114 96 82 64 38 40 38 26 19 15 15 13 8 4 7 4 3 358 2
153 144 134 162 163 170 169 162 167 165 168 172 176 180 186 187 187 198 201 203 200 187 176 163 162 151 88 40 19 20 22 17 4 356 358 6 3 359 354 353 352 354 353 352
154 140 172 175 176 186 190 177 176 179 183 187 190 188 193 197 198 203 204 202 200 196 192 195 201 234 308 333 330 340 350 352 354 345 354 359 358 360 353 352 355 351 347 346
166 151 161 171 176 178 179 179 181 183 188 185 187 194 204 209 206 205 211 210 207 205 208 225 241 269 296 309 304 315 325 331 340 339 344 349 354 354 354 354 350 345 347 349
149 152 163 170 179 181 186 193 199 197 197 202 204 205 207 207 205 210 215 215 213 219 238 245 262 285 297 302 300 297 304 320 338 332 335 345 347 350 351 346 347 343 344 345
189 179 186 195 188 191 194 201 205 209 214 215 214 215 213 210 213 218 219 222 223 227 238 253 257 288 304 304 286 288 301 311 326 335 336 342 345 347 344 346 347 347 346 345
185 190 199 200 205 205 202 208 211 217 218 220 219 219 224 225 225 222 218 222 232 239 247 250 276 293 305 294 265 314 319 316 314 324 331 335 338 338 338 338 339 338 338 336
172 182 196 200 204 209 210 214 218 217 222 224 221 221 223 229 230 224 226 238 244 243 243 253 279 299 307 297 284 326 339 326 316 317 321 327 328 331 331 331 331 329 328 329
180 183 190 198 199 208 223 222 217 221 228 228 230 231 234 233 232 235 242 250 249 241 244 260 299 300 299 296 316 337 329 325 315 310 314 321 323 323 323 321 324 325 324 320
178 185 193 196 201 207 216 220 215 224 233 231 226 227 229 229 231 234 238 240 243 237 248 284 306 308 313 313 319 322 326 333 329 319 315 315 318 318 312 310 315 314 315 316
181 184 192 200 210 214 210 213 219 227 238 240 237 238 239 238 235 234 236 238 238 244 264 292 310 316 317 318 313 311 328 333 324 311 301 300 308 295 301 309 309 313 313 315
191 188 192 194 206 215 220 222 226 231 238 240 241 236 230 226 223 216 217 222 246 240 272 302 313 315 313 318 318 316 308 297 295 294 293 294 304 306 305 306 308 308 308 306
198 203 207 211 220 226 229 234 237 240 240 236 227 218 212 214 218 227 235 244 257 285 292 292 294 289 289 294 300 295 296 300 298 296 302 305 308 310 310 309 309 309 309 308
215 216 223 228 232 241 244 246 251 250 241 226 215 212 211 218 223 220 220 256 264 264 257 276 289 291 286 292 303 299 294 298 301 304 306 308 310 311 310 310 310 310 310 310
209 208 210 224 231 232 235 239 255 246 228 212 207 204 204 209 211 206 221 252 261 263 274 283 285 291 298 302 302 303 304 306 307 309 312 313 314 314 315 315 315 315 313 312
Height
1487 1485 1486 1490 1489 1491 1491 1495 1499 1503 1501 1501 1505 1510 1515 1518 1519 1520 1517 1516 1515 1512 1509 1504 1500 1495 1489 1483 1477 1471 1464 1459 1454 1450 1440 1436 1430 1423 1417 1413 1414 1418 1416 1415
1487 1487 1483 1491 1497 1495 1492 1489 1494 1497 1500 1498 1504 1508 1514 1517 1518 1518 1518 1518 1516 1513 1511 1506 1502 1499 1493 1488 1483 1477 1471 1466 1461 1455 1449 1440 1437 1433 1430 1427 1428 1430 1429 1421
1481 1486 1484 1487 1487 1490 1486 1482 1488 1495 1489 1497 1503 1507 1511 1514 1516 1518 1519 1519 1516 1513 1512 1510 1506 1502 1497 1493 1490 1483 1478 1473 1467 1462 1457 1452 1448 1443 1440 1438 1436 1433 1429 1430
1484 1485 1481 1480 1476 1476 1477 1482 1485 1486 1490 1493 1499 1506 1509 1510 1513 1517 1519 1519 1517 1515 1513 1512 1509 1506 1502 1498 1494 1489 1484 1479 1475 1470 1465 1461 1457 1453 1452 1450 1443 1439 1437 1437
1479 1477 1477 1479 1475 1476 1478 1480 1479 1483 1491 1496 1501 1506 1509 1509 1512 1516 1518 1518 1517 1516 1514 1513 1511 1508 1504 1500 1497 1493 1489 1485 1482 1478 1474 1469 1465 1462 1459 1455 1453 1450 1449 1449
1478 1474 1477 1472 1468 1471 1474 1480 1474 1478 1488 1494 1500 1503 1501 1505 1510 1514 1516 1517 1517 1516 1515 1514 1513 1509 1506 1503 1500 1496 1494 1491 1488 1485 1481 1477 1475 1471 1468 1464 1461 1457 1454 1450
1477 1474 1471 1467 1469 1472 1484 1479 1474 1478 1483 1490 1495 1495 1496 1503 1509 1512 1515 1516 1516 1516 1515 1515 1515 1511 1508 1506 1504 1501 1499 1496 1492 1490 1487 1485 1483 1480 1478 1475 1471 1466 1463 1461
1476 1474 1476 1467 1470 1475 1472 1470 1473 1478 1481 1488 1493 1495 1498 1504 1508 1511 1513 1515 1516 1515 1515 1515 1515 1513 1510 1508 1507 1506 1503 1499 1496 1494 1492 1490 1487 1483 1479 1475 1472 1468 1467 1465
1469 1468 1467 1466 1467 1467 1469 1470 1474 1477 1482 1485 1491 1495 1500 1504 1508 1511 1513 1515 1516 1515 1515 1514 1514 1514 1512 1510 1509 1507 1505 1502 1499 1497 1494 1492 1489 1486 1482 1479 1476 1474 1472 1469
1468 1469 1468 1468 1467 1468 1469 1471 1473 1476 1479 1484 1488 1494 1500 1505 1508 1510 1512 1514 1515 1516 1515 1514 1514 1514 1512 1511 1509 1508 1506 1505 1502 1500 1497 1494 1492 1489 1484 1480 1477 1476 1474 1473
1470 1468 1468 1468 1467 1467 1470 1472 1475 1478 1481 1484 1488 1494 1498 1502 1506 1508 1511 1513 1514 1515 1515 1515 1514 1513 1513 1512 1511 1508 1506 1505 1503 1500 1498 1495 1493 1490 1486 1483 1482 1480 1478 1475
1463 1456 1460 1462 1465 1467 1470 1473 1476 1478 1482 1485 1489 1493 1497 1501 1504 1507 1509 1511 1513 1514 1515 1515 1514 1513 1513 1512 1511 1509 1507 1505 1504 1501 1499 1497 1495 1492 1490 1489 1488 1485 1482 1480
1452 1454 1459 1460 1465 1469 1471 1474 1478 1481 1484 1486 1491 1494 1497 1499 1503 1505 1507 1509 1512 1513 1513 1514 1514 1514 1514 1513 1511 1510 1507 1505 1504 1502 1501 1499 1496 1493 1492 1490 1488 1485 1482 1479
1453 1456 1461 1462 1465 1470 1473 1476 1480 1484 1487 1489 1492 1496 1498 1500 1502 1504 1506 1508 1510 1512 1512 1513 1514 1514 1513 1512 1511 1510 1508 1507 1506 1504 1502 1500 1496 1494 1492 1489 1486 1484 1481 1478
1455 1456 1457 1462 1467 1470 1474 1477 1481 1484 1487 1490 1493 1496 1499 1500 1502 1504 1506 1507 1508 1510 1511 1512 1512 1513 1512 1511 1510 1508 1508 1506 1505 1503 1502 1499 1497 1494 1491 1488 1485 1483 1481 1479
1457 1458 1460 1463 1467 1470 1474 1477 1480 1483 1486 1489 1493 1496 1498 1500 1502 1503 1505 1506 1507 1508 1509 1510 1510 1510 1510 1509 1509 1507 1506 1505 1503 1501 1500 1497 1494 1491 1489 1486 1485 1483 1480 1478
1456 1460 1462 1465 1468 1470 1473 1476 1480 1483 1486 1489 1492 1494 1496 1498 1500 1502 1503 1505 1506 1507 1508 1508 1508 1508 1508 1507 1507 1505 1504 1503 1501 1500 1497 1495 1492 1489 1487 1485 1484 1482 1479 1476
1456 1458 1461 1463 1466 1470 1473 1476 1479 1482 1485 1488 1490 1493 1494 1496 1498 1500 1502 1503 1504 1505 1506 1506 1506 1506 1505 1505 1504 1503 1501 1500 1498 1496 1495 1492 1489 1487 1486 1485 1482 1480 1477 1474
1456 1458 1461 1464 1467 1470 1473 1475 1478 1481 1484 1486 1488 1490 1493 1496 1498 1499 1501 1502 1502 1503 1504 1504 1503 1503 1503 1502 1502 1501 1499 1498 1496 1494 1492 1490 1488 1486 1485 1482 1480 1477 1474 1471
1457 1459 1461 1464 1467 1470 1472 1475 1478 1480 1483 1485 1487 1489 1491 1494 1496 1497 1498 1499 1500 1501 1501 1501 1501 1500 1500 1499 1499 1498 1496 1494 1492 1490 1489 1487 1486 1484 1482 1479 1476 1473 1469 1466
1457 1459 1461 1464 1466 1469 1472 1473 1476 1479 1481 1483 1485 1487 1489 1491 1493 1494 1496 1496 1497 1498 1498 1498 1497 1497 1496 1496 1495 1494 1493 1491 1489 1487 1486 1485 1483 1481 1478 1475 1472 1468 1464 1461
1457 1459 1461 1463 1466 1468 1471 1473 1473 1476 1480 1481 1483 1485 1486 1488 1489 1491 1492 1493 1494 1494 1495 1494 1494 1494 1493 1492 1491 1491 1490 1487 1485 1484 1483 1481 1479 1476 1473 1469 1466 1462 1459 1455
1458 1459 1461 1463 1465 1467 1470 1472 1473 1474 1477 1479 1481 1482 1483 1485 1487 1488 1489 1490 1491 1492 1492 1492 1492 1491 1490 1489 1489 1488 1487 1485 1483 1481 1479 1476 1473 1470 1467 1463 1460 1456 1452 1448
1458 1459 1461 1463 1465 1466 1469 1470 1472 1472 1474 1476 1478 1480 1481 1482 1484 1485 1486 1487 1488 1489 1489 1489 1488 1488 1487 1487 1486 1485 1483 1480 1478 1476 1474 1472 1469 1465 1461 1457 1453 1449 1446 1442
1458 1460 1461 1462 1465 1466 1467 1469 1470 1470 1471 1472 1475 1477 1479 1480 1482 1483 1484 1485 1486 1486 1486 1486 1486 1485 1484 1483 1482 1480 1478 1476 1474 1471 1469 1465 1461 1457 1453 1449 1445 1441 1437 1433
1458 1459 1461 1462 1464 1465 1465 1466 1467 1468 1468 1470 1472 1475 1477 1478 1480 1482 1483 1484 1484 1484 1484 1483 1483 1482 1481 1480 1478 1476 1474 1471 1468 1465 1462 1458 1453 1449 1445 1441 1437 1433 1429 1425
1457 1458 1459 1460 1461 1463 1463 1464 1465 1466 1467 1468 1471 1473 1475 1477 1480 1482 1482 1482 1483 1483 1482 1482 1481 1479 1478 1476 1474 1471 1468 1465 1462 1458 1455 1451 1446 1442 1438 1434 1430 1426 1421 1417